This is the latest recevied weather packets stored in our database for station/object s59zo-6. If no packets are shown the sender has not sent any weather packets the latest 10 day(s).
| Time | Temp. | Humidity | Pressure | Rain* | Wind** | Luminosity | Snow |
|---|---|---|---|---|---|---|---|
| 1787590504 | 28.33° C | 34% | 1019.4 hPa | 0 mm | - | - | - |
| 1787590205 | 28.33° C | 33% | 1019.4 hPa | 0 mm | - | - | - |
| 1787589904 | 28.89° C | 32% | 1019.3 hPa | 0 mm | - | - | - |
| 1787589605 | 28.89° C | 32% | 1019.5 hPa | 0 mm | - | - | - |
| 1787589305 | 28.89° C | 31% | 1019.5 hPa | 0 mm | - | - | - |
| 1787589004 | 29.44° C | 32% | 1019.6 hPa | 0 mm | - | - | - |
| 1787588704 | 29.44° C | 31% | 1019.5 hPa | 0 mm | - | - | - |
| 1787588405 | 29.44° C | 31% | 1019.5 hPa | 0 mm | - | - | - |
| 1787588104 | 29.44° C | 31% | 1019.6 hPa | 0 mm | - | - | - |
| 1787587804 | 29.44° C | 31% | 1019.6 hPa | 0 mm | - | - | - |
| 1787587504 | 28.89° C | 32% | 1019.8 hPa | 0 mm | - | - | - |
| 1787587205 | 28.89° C | 32% | 1019.7 hPa | 0 mm | - | - | - |
| 1787586904 | 28.89° C | 32% | 1019.8 hPa | 0 mm | - | - | - |
| 1787586605 | 28.89° C | 31% | 1020 hPa | 0 mm | - | - | - |
| 1787586305 | 29.44° C | 31% | 1019.9 hPa | 0 mm | - | - | - |
| 1787586004 | 29.44° C | 31% | 1020 hPa | 0 mm | - | - | - |
| 1787585704 | 29.44° C | 31% | 1020 hPa | 0 mm | - | - | - |
| 1787585405 | 29.44° C | 31% | 1020.1 hPa | 0 mm | - | - | - |
| 1787585105 | 29.44° C | 31% | 1020.1 hPa | 0 mm | - | - | - |
| 1787584805 | 30° C | 31% | 1020.1 hPa | 0 mm | - | - | - |
| 1787584505 | 30° C | 30% | 1020.2 hPa | 0 mm | - | - | - |
| 1787584205 | 30° C | 31% | 1020.3 hPa | 0 mm | - | - | - |
| 1787583905 | 29.44° C | 31% | 1020.3 hPa | 0 mm | - | - | - |
| 1787583604 | 29.44° C | 30% | 1020.2 hPa | 0 mm | - | - | - |
| 1787583304 | 29.44° C | 31% | 1020.1 hPa | 0 mm | - | - | - |
* Rain latest hour (hover to see other rain measurements)
** Current wind speed in m/s (hover to see current wind gust speed)